Theta_e
323 323 322 321 324 324 324 319 316 314 312 311 311 310 310 310 313 316 321 321 322 326 324 324 327 327 328 329 330 330 330 328 328 333 333 333 334 341 339 337 338 341 341 340 339 335 338 341 340 341 345 341 341 344
325 322 322 321 322 323 324 324 319 315 314 311 310 309 310 310 312 315 320 319 319 321 324 321 321 322 323 325 328 328 329 333 334 336 334 335 342 340 339 345 337 338 342 338 340 348 340 340 339 338 338 341 339 339
326 324 322 321 321 320 323 323 322 317 315 312 311 309 309 309 310 313 317 319 319 322 325 326 328 325 323 324 323 328 328 328 330 331 335 336 339 337 346 350 339 337 337 345 334 341 342 336 336 337 337 336 337 337
325 325 323 321 319 319 319 321 320 318 316 313 311 309 308 309 310 311 316 318 318 321 326 326 323 324 324 324 324 323 325 327 326 328 331 332 333 336 337 340 339 339 334 338 339 336 337 336 336 336 335 335 335 335
322 324 323 320 319 317 317 318 319 317 316 314 312 310 308 309 310 313 316 317 318 320 325 323 322 324 325 325 324 324 325 326 328 329 330 333 331 334 334 335 336 333 337 342 339 339 340 337 334 333 333 333 333 336
318 321 321 318 316 314 315 317 318 317 315 315 313 311 309 310 311 316 322 320 319 317 322 325 324 324 325 326 326 327 327 327 328 329 329 329 330 334 334 335 334 332 332 332 334 334 335 334 333 332 333 332 331 332
314 313 312 311 311 311 312 315 317 316 315 314 313 311 309 310 312 318 323 319 318 319 322 327 328 326 325 325 328 328 327 327 328 329 330 330 330 332 333 335 334 333 331 331 331 332 332 332 333 333 332 332 330 331
308 307 307 307 308 309 310 312 315 316 315 314 312 310 310 311 313 317 317 315 316 319 322 327 328 326 325 328 329 328 328 327 327 329 330 330 329 331 335 332 332 332 332 332 332 332 333 335 335 336 334 332 332 332
306 306 305 305 306 307 308 310 312 315 314 313 311 309 313 314 317 321 319 316 317 321 327 326 330 331 325 327 327 329 328 329 329 331 330 329 331 332 331 333 332 333 333 334 335 335 337 338 340 341 340 337 334 333
304 305 304 304 305 306 307 308 311 314 313 312 310 315 320 317 317 317 319 321 321 321 320 326 325 327 325 326 328 330 331 333 334 332 329 331 331 330 330 331 334 335 336 336 339 341 341 342 343 343 342 339 334 334
303 303 304 304 305 306 307 308 312 313 311 311 315 318 319 317 319 321 324 325 323 324 322 322 324 326 324 328 330 329 331 332 337 334 334 333 332 332 331 333 336 338 338 339 338 339 339 340 342 343 344 341 338 335
302 302 303 303 304 304 306 308 312 312 314 315 317 317 318 319 321 324 325 324 324 325 325 325 326 326 326 326 329 330 330 331 335 334 335 336 340 336 336 337 337 337 336 335 335 336 336 338 341 343 345 340 339 336
302 302 302 302 303 304 306 308 311 312 312 315 316 318 319 321 323 324 326 327 327 325 325 325 328 326 327 327 329 330 331 333 331 335 336 337 343 339 338 336 334 333 332 332 332 332 333 335 338 341 345 339 336 337
301 301 301 302 302 303 306 308 310 311 313 317 318 316 320 323 324 326 326 326 325 325 325 326 327 327 327 330 329 332 330 329 332 333 332 343 342 338 334 332 331 331 330 330 329 329 330 332 336 338 340 342 345 345
300 300 301 301 302 303 305 309 311 311 313 317 318 323 322 323 324 324 324 324 324 324 324 325 325 326 328 329 330 331 333 334 331 334 335 342 338 335 333 330 329 329 329 328 328 328 328 328 330 335 337 339 342 344
300 300 301 301 302 303 305 309 310 311 312 314 317 322 322 324 323 323 323 324 323 323 323 324 326 328 328 327 327 329 329 330 334 331 337 339 336 333 331 330 330 329 329 328 327 327 327 327 328 328 333 337 340 340
299 303 305 302 302 303 305 309 309 311 312 314 317 317 320 323 323 322 324 322 322 322 325 325 328 328 326 329 328 327 329 330 331 330 332 335 336 334 332 331 330 329 329 328 328 327 327 325 325 326 330 333 335 338
302 303 304 303 304 306 307 309 311 312 314 314 317 317 318 318 319 322 321 323 322 324 323 325 321 329 329 328 328 327 328 327 328 328 327 335 332 333 331 332 330 330 329 328 327 327 326 325 326 326 325 327 333 334
302 305 305 303 307 309 310 310 310 314 315 314 314 315 316 316 317 319 321 322 321 319 319 319 322 323 326 325 326 326 325 325 325 330 328 325 326 329 329 329 329 328 328 327 326 326 324 324 324 325 324 325 330 333
302 302 305 304 308 309 311 311 310 312 314 314 314 314 316 315 316 317 318 321 322 321 321 320 320 319 321 322 323 323 323 326 325 325 325 324 322 323 328 329 328 326 326 325 324 323 323 324 324 323 324 325 326 329
301 303 303 306 307 308 311 312 314 314 312 313 313 315 315 315 315 316 317 317 324 321 320 318 318 317 319 319 318 318 321 321 322 322 323 323 322 322 321 322 323 325 325 325 326 324 322 323 324 323 323 324 326 328
305 304 304 307 308 308 309 309 314 314 314 314 314 315 315 315 316 315 315 318 318 319 318 318 318 318 319 321 319 318 319 322 321 321 320 319 321 321 321 319 319 321 321 321 321 320 320 321 323 323 322 324 325 326
305 305 306 307 307 307 309 309 312 311 314 314 313 314 315 316 316 315 317 316 316 316 316 317 319 319 319 317 317 318 318 319 321 320 319 319 318 318 318 317 317 318 319 318 317 318 318 318 319 320 321 323 325 328
304 307 308 308 309 310 308 310 310 311 312 313 314 314 314 314 314 316 317 316 316 316 316 322 319 318 318 321 319 319 318 318 318 318 317 317 318 318 317 318 318 319 319 320 320 320 320 319 320 321 323 325 326 329
307 308 309 312 307 308 309 309 310 311 312 312 313 314 313 313 315 315 316 315 316 316 316 317 317 317 317 318 318 318 317 317 318 318 316 316 317 318 318 318 319 319 320 320 321 321 320 321 321 323 324 325 327 328
308 308 309 309 309 311 311 312 310 311 312 312 312 312 313 313 314 314 314 315 315 316 317 317 317 317 318 318 318 318 317 316 316 319 318 318 318 319 320 321 321 321 320 321 321 321 321 322 322 323 323 324 326 328
307 309 308 307 309 309 311 312 312 312 312 312 312 313 312 313 314 314 314 315 316 315 314 316 317 317 318 319 317 317 317 317 317 318 318 318 318 318 319 319 320 319 319 320 321 321 321 321 321 322 323 325 326 327
308 308 311 310 309 311 312 311 311 311 312 312 312 313 314 313 313 314 314 314 315 314 314 314 315 315 315 315 315 315 316 315 315 316 316 316 316 316 316 316 316 317 317 318 320 320 321 322 322 323 326 327 326 326
309 310 310 310 310 310 310 310 312 312 313 313 313 314 313 313 313 313 312 312 312 313 313 314 314 314 314 314 314 314 315 315 316 317 317 317 317 316 316 318 319 319 319 319 319 318 319 320 323 325 325 325 326 327
310 310 311 310 310 310 311 311 312 312 312 312 312 312 312 312 311 311 311 312 312 313 312 313 313 313 314 313 313 313 314 313 313 315 316 316 316 315 315 315 319 319 319 318 318 320 320 321 322 322 322 322 322 323
309 310 310 311 312 311 311 311 311 311 311 311 311 312 313 312 312 311 311 311 311 311 311 312 312 312 312 313 313 313 313 312 312 312 312 312 313 314 314 315 315 316 316 317 318 318 320 323 324 322 322 323 323 325
310 310 311 311 311 310 310 311 311 312 312 312 312 314 314 314 315 314 313 314 314 315 314 313 314 314 314 314 314 314 314 314 315 315 315 315 315 314 313 314 314 314 314 315 317 318 318 318 319 322 323 323 323 325
309 309 309 309 310 310 311 311 311 311 312 314 316 316 316 316 316 316 314 314 316 315 316 316 316 316 315 314 315 315 316 317 317 316 315 313 313 312 311 313 314 314 314 316 317 317 317 318 318 319 321 322 324 325
Wind_Speed
17 14 13 13 12 12 12 10 10 10 12 13 13 12 13 12 11 10 7 9 9 5 11 8 6 8 7 6 7 9 7 10 8 12 13 15 11 7 8 17 12 7 5 8 16 11 8 7 7 6 5 2 6 7
20 18 14 14 14 13 13 12 11 9 9 11 11 11 11 11 7 8 5 7 8 7 8 17 18 18 16 16 11 7 10 7 5 6 7 7 3 3 6 12 2 5 7 6 7 3 14 12 8 7 7 6 4 4
22 19 17 14 14 14 13 13 12 10 9 9 9 10 10 11 6 5 6 8 7 4 10 12 3 7 8 9 16 10 7 7 5 3 8 6 9 5 8 20 7 5 16 15 10 23 25 4 2 6 8 8 6 7
24 21 19 16 15 15 13 13 13 12 10 9 8 9 8 10 6 5 5 6 7 5 4 1 6 8 8 11 8 16 16 11 8 6 8 8 11 4 9 7 4 6 6 20 14 10 5 7 2 5 8 7 5 6
24 23 21 19 15 15 14 13 13 12 12 10 8 8 8 9 7 6 8 7 4 4 5 9 18 13 5 1 10 12 14 12 9 8 8 9 9 7 9 7 6 8 9 14 6 10 13 2 7 7 9 10 10 9
22 22 21 19 19 15 14 14 13 12 12 11 9 8 8 7 5 5 2 5 4 3 3 5 8 8 6 5 8 10 11 9 9 9 8 10 13 2 8 9 7 2 6 10 9 2 12 15 12 13 14 15 14 13
19 19 19 19 19 17 15 14 13 12 11 11 10 7 7 8 5 6 4 2 5 3 2 5 5 9 6 6 4 5 9 6 7 9 11 11 10 7 10 14 6 6 4 10 11 11 12 11 11 11 12 12 15 16
19 18 17 16 17 15 14 14 13 12 11 11 9 7 6 5 6 8 6 15 7 7 3 4 5 5 9 4 4 3 3 5 4 9 9 10 10 11 10 14 15 12 10 10 9 11 14 15 16 17 17 17 16 14
18 17 16 16 16 14 13 12 13 11 10 9 7 5 4 4 4 1 3 5 9 5 3 4 7 2 3 6 2 5 3 4 7 9 11 7 10 10 11 16 14 10 9 9 11 15 14 13 14 16 16 15 17 15
16 15 14 13 12 13 14 13 12 10 10 8 5 4 3 4 5 2 2 3 4 3 3 4 8 9 4 4 3 3 4 5 3 8 8 11 13 15 16 12 7 7 9 11 12 11 12 13 14 14 15 15 13 13
16 15 14 13 14 13 13 13 13 14 12 6 6 3 2 3 3 4 3 4 4 4 5 5 9 8 3 5 2 4 2 3 4 2 5 5 11 15 16 7 4 6 7 7 8 9 11 13 14 14 14 13 12 11
15 15 14 13 13 14 15 16 17 19 8 8 3 2 3 3 4 4 4 4 5 4 8 8 5 7 3 2 4 3 5 4 5 4 4 6 2 8 10 8 7 5 4 5 6 8 10 12 14 13 13 10 11 12
15 14 14 15 14 14 17 18 18 20 8 4 3 3 3 3 4 6 8 5 5 5 5 7 6 4 5 5 3 4 5 6 6 3 7 1 10 8 7 5 4 2 3 4 7 9 11 13 14 14 12 9 9 10
15 15 15 14 14 15 16 18 18 22 5 3 5 4 6 6 6 8 9 6 2 2 4 6 3 3 4 5 4 5 5 3 5 10 9 7 9 8 7 5 4 2 2 4 6 8 10 11 12 12 12 15 15 9
15 14 14 14 14 17 17 18 22 20 5 4 4 5 8 10 7 4 5 4 1 4 4 4 5 7 4 4 4 5 3 5 5 3 1 7 8 6 5 4 2 1 4 5 6 8 10 12 12 11 10 11 8 10
13 11 17 16 15 21 18 16 18 11 3 3 5 5 8 9 11 10 8 7 4 4 2 2 4 4 7 4 6 8 5 6 3 2 6 5 7 6 4 2 1 2 3 5 6 9 11 12 12 14 14 10 8 7
14 6 7 15 21 22 21 11 6 5 4 4 4 8 12 6 5 1 2 3 3 5 8 3 6 10 4 5 10 9 12 1 6 7 4 7 8 7 5 4 4 3 4 6 7 9 12 14 14 15 10 11 12 10
9 9 8 20 24 20 10 8 5 5 7 6 5 9 11 12 11 4 2 3 4 2 2 2 5 5 5 10 9 4 6 9 6 6 2 3 3 4 6 7 8 8 8 9 10 12 17 14 13 10 13 12 12 11
11 7 11 28 23 7 5 6 4 4 7 5 8 10 10 9 9 6 5 7 4 4 2 1 5 4 10 11 12 12 9 8 7 2 3 4 8 9 11 13 14 14 13 15 13 15 16 16 15 14 14 13 11 10
14 7 9 29 16 3 4 3 4 3 4 5 8 11 12 11 11 8 10 11 10 4 6 6 8 10 14 12 12 11 11 9 7 10 10 10 13 14 13 15 16 20 19 20 18 19 18 17 13 15 13 11 12 13
11 12 12 18 12 2 2 5 6 4 4 7 9 8 9 9 10 11 12 11 10 9 8 9 12 14 18 20 22 22 14 15 13 13 14 12 14 16 17 16 15 13 18 17 10 15 16 18 19 14 14 14 12 14
8 17 9 11 4 5 3 3 3 2 4 5 5 8 12 14 12 12 12 12 14 13 13 14 15 15 15 17 17 27 26 24 22 21 22 22 13 13 12 20 19 12 18 20 21 19 22 22 20 17 15 14 12 15
13 14 4 4 2 3 2 6 5 3 4 3 4 4 7 10 10 9 9 10 13 13 16 15 21 29 20 29 30 30 27 22 12 13 18 18 20 21 20 20 20 17 11 19 22 22 22 22 22 18 18 17 17 16
6 5 4 6 6 6 4 4 2 3 3 5 7 11 14 10 9 6 10 12 14 14 14 16 15 15 17 19 16 14 21 23 22 23 22 18 11 14 19 19 19 20 20 19 18 19 19 20 19 18 17 16 17 15
4 6 5 5 4 5 5 6 6 6 6 7 5 8 7 4 7 12 13 14 13 13 13 12 13 14 14 13 11 14 22 21 12 12 18 19 18 17 16 17 18 18 17 16 15 15 17 17 16 16 16 15 15 13
5 7 7 9 6 5 7 7 8 9 9 10 7 5 6 6 12 8 11 9 9 10 10 10 12 12 11 10 10 10 13 18 18 9 14 16 16 13 10 10 9 11 15 16 15 15 16 16 16 16 15 16 13 11
4 5 4 5 4 5 4 7 8 6 8 6 6 11 4 5 7 7 9 9 6 5 10 9 7 6 6 6 10 10 9 9 11 11 12 13 14 13 13 11 10 13 13 13 11 13 14 15 17 17 16 13 11 9
4 6 9 11 7 8 12 6 4 5 6 7 9 9 6 7 7 7 4 8 7 9 14 15 13 14 11 13 15 12 11 12 14 14 14 16 17 18 19 19 19 14 14 16 17 16 13 13 15 13 4 9 14 10
4 6 7 9 9 6 6 7 9 9 10 9 11 15 17 14 12 10 17 20 19 17 13 14 17 17 19 23 22 21 21 20 13 15 16 11 11 16 17 18 13 14 16 16 16 17 17 18 9 11 14 10 16 11
9 10 9 9 10 7 8 9 10 11 11 11 12 14 14 14 22 26 26 25 21 15 21 22 23 22 15 16 16 24 25 24 23 17 13 13 14 20 21 17 15 14 13 11 15 14 21 16 15 15 16 17 18 19
6 10 15 15 16 15 14 13 13 13 14 15 15 15 17 16 21 28 28 27 27 26 24 18 23 26 24 21 16 15 15 26 27 28 29 28 28 25 23 22 18 14 12 14 14 15 13 22 19 12 16 19 19 12
7 10 11 15 13 12 12 11 12 13 14 14 15 14 14 14 17 13 26 23 23 14 24 26 20 20 28 27 26 26 25 23 22 21 20 22 24 27 30 27 23 20 19 18 16 14 16 17 14 16 19 20 15 13
10 9 7 6 7 9 4 4 4 6 7 11 13 12 12 10 14 12 22 24 15 14 13 14 16 14 12 14 17 16 12 16 17 17 17 18 20 20 17 22 27 26 21 18 16 12 14 17 20 19 16 17 15 16
Wind_Direction
281 283 286 280 274 289 294 299 305 319 336 345 347 351 357 2 11 15 345 359 336 305 303 286 280 288 286 243 277 3 284 210 262 245 248 260 273 343 337 286 174 165 60 318 304 225 240 17 175 204 97 96 14 1
270 277 278 280 270 270 283 288 288 295 320 336 348 352 350 356 12 21 318 339 321 274 291 309 278 271 273 278 288 295 308 308 337 296 269 286 93 47 37 284 177 225 300 197 279 58 319 346 50 68 59 84 28 10
261 267 271 272 273 266 268 277 277 275 291 312 334 343 349 344 351 360 323 332 322 268 285 222 230 191 244 251 242 264 257 273 273 351 308 300 297 203 182 247 132 8 323 298 287 125 197 154 76 52 44 42 8 30
252 257 263 265 267 266 262 268 270 263 267 282 306 325 332 329 330 339 301 318 312 308 278 60 196 230 290 253 226 233 267 279 281 289 282 278 273 17 310 344 313 106 54 308 298 283 198 156 111 25 23 350 346 326
247 249 255 260 256 259 258 259 261 258 255 263 279 304 309 324 321 307 285 274 269 300 326 310 302 261 236 193 222 240 248 247 260 266 250 257 273 305 271 265 273 196 165 240 303 28 338 18 345 313 303 300 295 284
248 248 250 255 255 246 251 251 254 252 247 250 257 282 299 316 319 305 225 163 185 187 281 303 359 268 211 228 237 242 247 243 248 255 257 269 266 1 269 265 270 265 256 274 294 207 218 287 300 298 287 280 275 275
243 244 247 248 255 241 240 242 246 245 239 242 249 266 289 304 278 280 354 111 163 315 264 290 299 157 219 240 221 228 220 235 244 246 248 264 264 222 262 273 299 328 258 294 298 314 296 288 291 301 304 298 291 271
239 239 242 245 249 233 233 233 237 238 235 235 241 255 282 286 294 273 239 223 231 265 234 271 263 235 175 212 206 258 232 210 246 248 251 235 240 238 255 262 283 283 292 288 275 293 314 316 299 289 287 282 276 279
236 237 240 241 236 230 221 223 227 228 223 220 226 262 269 222 227 104 192 199 203 261 274 232 289 20 145 243 191 198 216 232 239 224 234 256 238 231 231 235 258 250 253 286 306 299 295 293 310 304 282 273 272 272
233 231 230 234 229 222 215 211 213 208 196 188 171 218 231 196 215 244 177 207 199 198 230 264 274 266 302 283 224 215 202 236 256 245 223 224 246 247 226 240 246 287 296 293 288 297 323 314 316 308 296 296 267 272
230 232 227 226 225 214 200 194 196 178 165 165 198 223 118 157 234 228 235 214 177 230 213 238 232 252 288 247 343 288 261 257 257 188 238 224 226 228 222 205 210 256 258 266 285 298 311 317 316 308 299 282 279 282
226 225 224 220 218 205 196 192 195 178 181 188 178 168 171 207 217 236 215 223 210 248 178 224 173 206 230 283 253 249 262 257 257 126 233 251 117 122 152 177 182 214 254 288 311 318 323 318 322 313 309 287 272 267
224 222 223 220 215 206 196 195 203 188 165 149 206 176 193 183 206 221 199 204 216 200 199 182 189 177 194 224 232 248 232 246 314 211 238 132 149 151 147 151 175 210 269 305 324 325 325 330 330 333 322 314 286 275
223 222 221 218 210 202 198 194 199 190 195 208 177 210 210 187 227 208 238 294 163 182 187 196 144 233 227 203 225 249 244 290 239 257 267 138 154 142 153 143 198 229 321 339 337 335 336 336 337 336 335 342 329 317
221 223 220 216 207 199 197 194 196 183 206 208 207 225 214 238 263 206 267 277 118 244 163 185 211 239 208 259 219 241 243 235 238 62 80 122 129 144 146 148 124 48 11 348 356 349 343 345 336 331 332 317 306 334
217 225 229 212 203 191 188 186 177 177 224 236 229 237 229 219 233 238 236 245 223 190 232 170 238 237 227 226 224 225 235 251 71 25 107 127 153 154 164 159 167 345 315 331 350 343 339 341 334 336 324 316 322 340
193 219 213 197 184 180 179 166 154 194 216 227 221 241 270 290 291 311 345 262 336 197 210 204 237 214 227 227 227 243 245 304 55 345 83 127 169 188 205 215 235 261 295 318 326 324 330 319 331 325 326 328 316 311
204 213 230 173 166 164 188 192 183 205 225 227 223 227 232 247 264 250 267 209 193 20 22 341 312 254 234 226 228 212 24 346 13 343 11 140 261 234 240 252 252 257 274 289 295 303 301 312 313 315 317 313 308 283
189 178 172 169 165 162 163 183 210 237 214 207 226 250 251 256 263 286 233 211 225 107 101 66 261 236 249 267 285 295 305 273 296 253 311 304 280 252 245 254 266 260 264 274 276 288 300 296 292 294 301 299 297 302
197 200 165 179 171 164 163 174 199 233 236 227 234 241 241 256 268 243 233 227 218 204 207 205 227 242 259 270 277 285 290 303 306 289 285 287 279 273 245 249 255 262 268 272 269 262 270 273 283 289 291 306 307 287
203 211 201 182 204 234 282 185 198 212 205 237 257 233 249 257 246 245 243 238 232 227 240 245 250 256 260 264 268 273 269 269 273 282 284 280 279 284 284 272 275 256 262 262 263 276 274 269 267 278 284 282 285 284
185 180 160 174 190 183 244 252 287 276 224 241 260 249 246 246 250 246 248 239 236 238 235 244 254 260 261 259 257 257 260 263 264 269 272 273 268 265 262 264 270 269 269 272 272 271 271 267 264 268 275 277 277 276
160 177 173 146 131 207 222 197 198 214 245 226 236 233 235 244 253 258 245 239 250 253 253 248 248 254 259 264 270 272 266 261 258 259 260 259 258 260 263 264 266 268 268 266 267 268 270 273 272 268 266 267 262 269
190 191 165 181 187 185 184 206 211 190 212 235 241 254 265 267 259 237 254 251 256 260 255 237 236 249 256 249 253 258 255 248 249 253 253 254 255 257 259 262 262 260 258 260 263 266 264 259 257 252 247 252 254 255
177 184 188 168 170 175 199 182 187 207 224 206 227 237 257 264 252 249 255 262 259 257 256 251 250 251 254 254 254 259 249 234 244 250 245 239 242 251 254 256 258 260 262 260 256 256 255 254 248 245 246 253 260 262
200 181 198 188 165 196 189 188 197 215 238 238 238 250 261 259 252 251 258 271 268 266 264 246 242 251 246 241 248 255 249 231 227 236 243 242 241 243 250 258 263 266 258 243 237 246 256 253 248 251 253 246 222 245
221 185 185 205 193 221 227 246 212 223 218 223 230 216 216 230 247 251 264 254 267 277 284 267 268 267 263 237 218 230 249 253 255 258 249 240 246 249 256 264 268 274 281 286 280 269 253 244 250 252 254 250 247 261
228 179 197 188 208 221 242 259 230 221 236 239 228 218 215 220 248 263 320 325 301 295 285 264 236 255 265 272 274 266 248 236 231 230 241 245 247 251 253 253 251 251 263 273 273 273 272 273 282 281 232 272 273 270
215 198 213 200 204 218 223 231 235 229 243 249 242 239 248 256 266 277 271 277 282 284 278 272 263 253 253 254 254 250 247 248 253 258 259 259 264 267 270 224 236 233 236 237 226 235 251 261 295 321 315 288 262 257
215 204 199 211 213 227 230 226 252 262 267 273 274 274 270 265 266 274 275 272 270 269 265 263 261 257 259 261 263 261 259 258 260 263 263 259 254 252 257 263 193 234 252 252 262 222 220 232 242 258 265 263 265 266
217 232 233 232 233 239 246 258 264 271 270 268 267 267 268 271 271 270 270 270 268 265 262 259 257 256 255 255 255 257 257 255 255 257 260 263 265 263 258 263 264 255 254 250 259 266 211 202 239 249 252 250 256 260
233 237 247 248 257 262 257 269 278 276 276 278 278 278 277 276 273 280 275 265 254 252 248 247 255 257 256 257 257 258 263 268 273 273 273 263 256 253 257 255 254 255 257 257 250 250 259 268 259 234 250 257 248 247
227 246 261 292 280 277 302 344 302 281 270 264 264 265 265 259 269 264 256 254 270 281 279 257 251 254 244 244 249 256 265 263 268 274 278 275 269 275 288 265 243 246 252 249 249 261 275 274 272 262 259 266 241 237